Вернуться в каталог

INTELSAT 36

АктивенСвязьGEO
NORAD 41747·PAYLOAD· XX

Запущен Aug 24, 2016 с Guiana Space Centre

Loading…

TLE

СвежийSource: CelesTrak SupGP

Эпоха: Sep 14, 2026, 00:00 UTC

1 41747C 16053A   26257.00000000  .00000066  00000+0  00000+0 0  2577
2 41747   0.0001 112.0351 0001846 246.5479  62.9160  1.00271645    16

Отслеживайте INTELSAT 36 в реальном времени с AllMySat

Download on the App Store